FW8519 Weather Reports


time (UTC)temp
F
wind
direction
speed
knots
gust
knots
rain 1hr
in
rain 24hr
in
rain mn
in
humidity
%
barometer
mb
20260506143516 49 158 6.1 10.4 0.00 0.00 0.00 60 1015.0
20260506143020 49 135 4.3 9.6 0.00 0.00 0.00 58 1015.0
20260506142515 49 113 5.2 7.8 0.00 0.00 0.00 57 1015.1
20260506142015 49 113 5.2 8.7 0.00 0.00 0.00 56 1015.1
20260506141515 49 113 6.1 9.6 0.00 0.00 0.00 57 1015.1
20260506141015 49 135 4.3 9.6 0.00 0.00 0.00 56 1015.0
20260506140515 49 158 4.3 7.0 0.00 0.00 0.00 58 1015.1
20260506140017 49 135 2.6 6.1 0.00 0.00 0.00 57 1015.1
20260506135515 49 135 4.3 7.0 0.00 0.00 0.00 55 1015.2
20260506135015 49 90 4.3 9.6 0.00 0.00 0.00 60 1015.2
20260506134515 49 135 4.3 8.7 0.00 0.00 0.00 58 1015.3
20260506134015 49 135 7.0 11.3 0.00 0.00 0.00 59 1015.4
20260506133536 49 135 7.0 11.3 0.00 0.00 0.00 59 1015.3
20260506133015 50 113 6.1 9.6 0.00 0.00 0.00 59 1015.3
20260506132515 50 225 4.3 10.4 0.00 0.00 0.00 56 1015.3
20260506132035 50 135 6.1 11.3 0.00 0.00 0.00 56 1015.3
20260506131515 51 135 6.1 10.4 0.00 0.00 0.00 60 1015.4
20260506131015 50 135 6.1 9.6 0.00 0.00 0.00 55 1015.5
20260506130515 50 158 5.2 10.4 0.00 0.00 0.00 57 1015.4
20260506130015 50 158 7.0 11.3 0.00 0.00 0.00 58 1015.4
20260506125515 50 135 6.1 8.7 0.00 0.00 0.00 58 1015.3
20260506125015 50 158 6.1 9.6 0.00 0.00 0.00 58 1015.3
20260506124515 50 203 7.0 10.4 0.00 0.00 0.00 55 1015.3
20260506124015 49 135 7.0 11.3 0.00 0.00 0.00 58 1015.3
20260506123515 49 135 6.1 10.4 0.00 0.00 0.00 56 1015.4
20260506123015 50 135 4.3 9.6 0.00 0.00 0.00 57 1015.3
20260506122515 49 158 4.3 9.6 0.00 0.00 0.00 57 1015.4
20260506122017 49 135 6.1 10.4 0.00 0.00 0.00 55 1015.4
20260506121517 49 113 6.1 9.6 0.00 0.00 0.00 56 1015.3
20260506121015 49 113 7.0 11.3 0.00 0.00 0.00 57 1015.4
20260506120517 49 135 7.0 9.6 0.00 0.00 0.00 59 1015.4
20260506120017 48 135 7.0 12.2 0.00 0.00 0.00 58 1015.5
20260506115537 48 158 4.3 8.7 0.00 0.00 0.00 58 1015.5
20260506115017 48 248 2.6 6.1 0.00 0.00 0.00 61 1015.4
20260506114515 48 248 4.3 7.8 0.00 0.00 0.00 62 1015.5
20260506114017 49 225 3.5 7.0 0.00 0.00 0.00 62 1015.4
20260506113537 48 203 3.5 8.7 0.00 0.00 0.00 57 1015.5
20260506113017 48 203 4.3 8.7 0.00 0.00 0.00 61 1015.6
20260506112537 47 158 1.7 3.5 0.00 0.00 0.00 59 1015.6
20260506112055 47 225 1.7 4.3 0.00 0.00 0.00 58 1015.7
20260506111537 47 203 3.5 6.1 0.00 0.00 0.00 58 1015.7
20260506111057 47 225 6.1 8.7 0.00 0.00 0.00 63 1015.7
20260506110517 48 225 3.5 8.7 0.00 0.00 0.00 62 1015.8
20260506110017 47 113 0.9 3.5 0.00 0.00 0.00 60 1015.7
20260506105517 47 248 3.5 7.0 0.00 0.01 0.00 59 1015.9
20260506105017 48 135 3.5 7.0 0.00 0.01 0.00 60 1015.9
20260506104517 47 90 2.6 7.8 0.00 0.02 0.00 60 1015.9
20260506104017 47 225 4.3 8.7 0.00 0.02 0.00 62 1016.0
20260506103517 47 225 2.6 7.8 0.00 0.02 0.00 62 1016.0
20260506103037 46 203 2.6 7.0 0.00 0.02 0.00 58 1016.0
20260506102517 46 135 2.6 6.1 0.00 0.02 0.00 60 1016.0
20260506102017 46 135 3.5 7.8 0.00 0.02 0.00 60 1016.1
20260506101517 46 203 3.5 7.0 0.00 0.02 0.00 59 1016.1
20260506101017 46 158 6.1 8.7 0.00 0.02 0.00 60 1016.1
20260506100517 46 158 3.5 7.8 0.00 0.02 0.00 62 1016.2
20260506100017 46 203 4.3 8.7 0.00 0.02 0.00 58 1016.3
20260506095517 46 135 3.5 7.8 0.00 0.02 0.00 61 1016.3
20260506095017 46 135 4.3 7.8 0.00 0.02 0.00 61 1016.4
20260506094517 46 158 6.1 10.4 0.00 0.02 0.00 62 1016.4
20260506094037 46 203 4.3 10.4 0.00 0.02 0.00 67 1016.3
20260506093517 45 248 3.5 7.0 0.00 0.02 0.00 64 1016.3
20260506093017 45 248 5.2 7.8 0.00 0.02 0.00 64 1016.4
20260506092537 45 248 3.5 7.0 0.00 0.02 0.00 66 1016.5
20260506092037 46 203 4.3 7.8 0.00 0.02 0.00 67 1016.6
20260506091537 45 203 4.3 7.0 0.00 0.02 0.00 70 1016.6
20260506091057 45 113 3.5 7.0 0.00 0.02 0.00 68 1016.6
20260506090517 45 203 1.7 7.0 0.00 0.02 0.00 70 1016.7
20260506090017 44 225 2.6 5.2 0.00 0.02 0.00 71 1016.7
20260506085517 44 203 3.5 6.1 0.00 0.02 0.00 70 1016.8
20260506085037 44 270 2.6 9.6 0.00 0.02 0.00 73 1016.8
20260506084517 44 225 0.9 6.1 0.00 0.02 0.00 73 1016.9
20260506084017 44 180 1.7 5.2 0.00 0.02 0.00 75 1016.9
20260506083516 43 225 2.6 5.2 0.00 0.02 0.00 74 1016.9
20260506083017 43 225 4.3 8.7 0.00 0.02 0.00 73 1017.0
20260506082516 44 248 2.6 4.3 0.00 0.02 0.00 73 1016.9
20260506082017 44 90 0.9 2.6 0.00 0.02 0.00 72 1017.0
20260506081537 44 113 1.7 3.5 0.00 0.02 0.00 73 1017.0
20260506081036 44 113 0.9 1.7 0.00 0.02 0.00 75 1017.1
20260506080516 43 225 1.7 2.6 0.00 0.02 0.00 75 1017.0
20260506073516 42 0.0 0.9 0.00 0.02 0.00 83 1017.3
20260506073016 41 0.0 0.9 0.00 0.02 0.00 83 1017.2
20260506072517 41 0.0 0.9 0.00 0.02 0.00 86 1017.2
20260506072036 41 0.0 0.9 0.00 0.02 0.00 87 1017.2
20260506071517 40 0.0 0.9 0.00 0.02 0.00 86 1017.2
20260506071016 40 203 0.9 1.7 0.00 0.02 0.00 86 1017.3
20260506070517 40 0.0 0.9 0.00 0.02 0.00 87 1017.3
20260506062517 38 0.0 0.9 0.00 0.02 0.00 88 1017.3
20260506062016 37 0.0 0.9 0.00 0.02 0.00 88 1017.4
20260506061537 37 0.0 0.9 0.00 0.02 0.00 89 1017.3
20260506061016 37 0.0 0.9 0.00 0.02 0.00 88 1017.3
20260506060516 37 0.0 0.9 0.00 0.02 0.00 89 1017.3
20260506051016 37 90 0.9 1.7 0.00 0.02 0.00 87 1017.4
20260506050516 37 113 0.9 1.7 0.00 0.02 0.00 87 1017.4
20260506045016 37 0.0 0.0 0.00 0.02 0.00 87 1017.4
20260506044516 37 0.0 0.0 0.00 0.02 0.00 87 1017.4
20260506044016 37 0.0 0.0 0.00 0.02 0.00 87 1017.4
20260506043516 37 0.0 0.0 0.00 0.02 0.00 88 1017.4
20260506043016 36 0.0 0.9 0.00 0.02 0.00 88 1017.3
20260506042536 36 0.0 0.0 0.00 0.02 0.00 88 1017.3
20260506042016 36 0.0 0.0 0.00 0.02 0.00 88 1017.3
20260506041516 36 68 0.9 0.9 0.00 0.02 0.00 87 1017.3
20260506041016 37 68 0.9 1.7 0.00 0.02 0.00 87 1017.3
20260506040516 37 0.0 0.9 0.00 0.02 0.00 86 1017.4
20260506040016 37 0.0 0.9 0.00 0.02 0.00 85 1017.4
20260506035516 37 0.0 0.9 0.00 0.02 0.00 86 1017.3
20260506035016 37 293 0.9 0.9 0.00 0.02 0.00 86 1017.3
20260506034516 37 293 0.9 0.9 0.00 0.02 0.00 86 1017.4
20260506034016 37 0.0 0.9 0.00 0.02 0.00 86 1017.3
20260506033516 37 293 0.9 0.9 0.00 0.02 0.00 86 1017.3
20260506033016 37 293 0.9 0.9 0.00 0.02 0.00 86 1017.3
20260506032516 37 0.0 0.9 0.00 0.02 0.00 86 1017.4
20260506032036 37 0.0 0.9 0.00 0.02 0.00 85 1017.4
20260506031516 37 0.0 0.0 0.00 0.02 0.00 85 1017.5
20260506031016 37 293 0.9 1.7 0.00 0.02 0.00 85 1017.5
20260506030516 37 293 0.9 1.7 0.00 0.02 0.00 84 1017.5
20260506030016 37 0.0 0.9 0.00 0.02 0.00 83 1017.5
20260506025516 37 0.0 0.9 0.00 0.02 0.00 83 1017.5
20260506025036 37 0.0 0.9 0.00 0.02 0.00 83 1017.5
20260506024516 37 0.0 0.0 0.00 0.02 0.00 83 1017.6
20260506024016 37 0.0 0.0 0.00 0.02 0.00 84 1017.5
20260506023536 36 0.0 0.9 0.00 0.02 0.00 84 1017.5
20260506023016 37 68 0.9 1.7 0.00 0.02 0.00 84 1017.5
20260506022536 37 68 0.9 0.9 0.00 0.02 0.00 82 1017.5
20260506022016 38 0.0 0.0 0.00 0.02 0.00 81 1017.5
20260506021516 38 0.0 0.9 0.00 0.02 0.00 81 1017.5
20260506021016 38 0.0 0.9 0.00 0.02 0.00 81 1017.6
20260506020516 38 0.0 0.9 0.00 0.02 0.00 80 1017.5
20260506020016 38 0.0 0.9 0.00 0.02 0.00 78 1017.6
20260506015516 38 0.0 0.9 0.00 0.02 0.00 78 1017.5
20260506015016 38 0.0 0.0 0.00 0.02 0.00 79 1017.6
20260506014516 38 0.0 0.0 0.00 0.02 0.00 80 1017.6
20260506014016 38 0.0 0.9 0.00 0.02 0.00 81 1017.6
20260506013536 38 0.0 0.9 0.00 0.02 0.00 81 1017.8
20260506013036 38 0.0 0.9 0.00 0.02 0.00 81 1017.9
20260506012516 38 0.0 0.9 0.00 0.02 0.00 80 1017.9
20260506012016 38 0.0 0.0 0.00 0.02 0.00 79 1017.9
20260506011516 38 0.0 0.0 0.00 0.02 0.00 79 1017.9
20260506011016 38 0.0 0.0 0.00 0.02 0.00 79 1017.9
20260506010516 38 0.0 0.0 0.00 0.02 0.00 79 1018.0
20260506010016 38 0.0 0.0 0.00 0.02 0.00 79 1017.9
20260506005516 38 0.0 0.0 0.00 0.02 0.00 79 1018.0
20260506005015 38 0.0 0.9 0.00 0.02 0.00 79 1018.0
20260506004516 38 0.0 0.9 0.00 0.02 0.00 79 1018.0
20260506004036 39 0.0 0.0 0.00 0.02 0.00 79 1018.1
20260506003536 39 0.0 0.9 0.00 0.02 0.00 78 1018.0
20260506003016 39 0.0 0.0 0.00 0.02 0.00 79 1018.0
20260506002536 39 0.0 0.9 0.00 0.02 0.00 79 1018.0
20260506002036 39 0.0 0.0 0.00 0.02 0.00 79 1018.1
20260506001515 39 0.0 0.9 0.00 0.02 0.00 80 1018.1
20260506001036 39 0.0 0.9 0.00 0.02 0.00 81 1018.1
20260506000536 39 0.0 0.9 0.00 0.02 0.00 81 1018.0
20260506000036 39 0.0 0.9 0.00 0.02 0.02 80 1018.1
20260505235516 39 0.0 0.0 0.00 0.02 0.02 79 1018.1
20260505235016 39 0.0 0.0 0.00 0.02 0.02 78 1018.1
20260505234516 39 0.0 0.9 0.00 0.02 0.02 79 1018.1
20260505234016 39 0.0 0.0 0.00 0.02 0.02 78 1018.1
20260505233536 39 0.0 0.0 0.00 0.02 0.02 78 1018.1
20260505233016 39 0.0 0.0 0.00 0.02 0.02 78 1018.2
20260505232516 40 0.0 0.9 0.00 0.02 0.02 78 1018.1
20260505232016 40 45 0.9 1.7 0.00 0.02 0.02 78 1018.1
20260505231516 40 45 1.7 1.7 0.00 0.02 0.02 78 1018.2
20260505231016 39 45 0.9 1.7 0.00 0.02 0.02 79 1018.1
20260505230536 39 0.0 0.9 0.00 0.02 0.02 79 1018.1
20260505230016 39 0.0 0.0 0.00 0.02 0.02 79 1018.2
20260505225536 39 0.0 0.9 0.00 0.02 0.02 79 1018.2
20260505225016 40 0.0 0.9 0.00 0.02 0.02 78 1018.2
20260505224516 40 0.0 0.0 0.00 0.02 0.02 78 1018.2
20260505224016 40 0.0 0.9 0.00 0.02 0.02 78 1018.2
20260505223516 40 45 0.9 2.6 0.00 0.02 0.02 78 1018.3
20260505223036 40 45 1.7 1.7 0.00 0.02 0.02 78 1018.3
20260505222516 40 68 0.9 1.7 0.00 0.02 0.02 78 1018.3
20260505222016 40 45 1.7 2.6 0.00 0.02 0.02 78 1018.4
20260505221536 40 45 1.7 2.6 0.00 0.02 0.02 79 1018.3
20260505221016 40 45 1.7 2.6 0.00 0.02 0.02 78 1018.3
20260505220516 40 0.0 2.6 0.00 0.02 0.02 78 1018.4
20260505220016 40 45 0.9 1.7 0.00 0.02 0.02 78 1018.4
20260505215516 40 45 0.9 1.7 0.00 0.02 0.02 79 1018.4
20260505215016 40 45 1.7 1.7 0.00 0.02 0.02 79 1018.3
20260505214516 40 45 0.9 1.7 0.00 0.02 0.02 79 1018.3
20260505214016 40 0.0 0.9 0.00 0.02 0.02 79 1018.4
20260505213516 40 0.0 0.9 0.00 0.02 0.02 79 1018.4
20260505213016 40 45 0.9 1.7 0.00 0.02 0.02 79 1018.3
20260505212516 40 45 1.7 1.7 0.00 0.02 0.02 79 1018.3
20260505212036 41 45 1.7 1.7 0.00 0.02 0.02 79 1018.4
20260505211516 41 45 0.9 1.7 0.00 0.02 0.02 79 1018.4
20260505211036 41 45 1.7 1.7 0.00 0.02 0.02 78 1018.4
20260505210516 41 68 0.9 1.7 0.00 0.02 0.02 78 1018.4
20260505210016 41 68 1.7 1.7 0.00 0.02 0.02 79 1018.3
20260505205516 41 68 1.7 2.6 0.00 0.02 0.02 78 1018.3
20260505205036 41 68 2.6 2.6 0.00 0.02 0.02 77 1018.3
20260505204516 41 68 1.7 2.6 0.00 0.02 0.02 78 1018.4
20260505204016 41 68 1.7 2.6 0.00 0.02 0.02 78 1018.4
20260505203516 42 68 0.9 1.7 0.00 0.02 0.02 78 1018.4
20260505203016 42 68 0.9 1.7 0.00 0.02 0.02 78 1018.3
20260505202516 42 68 1.7 2.6 0.00 0.02 0.02 77 1018.3
20260505202016 42 68 1.7 2.6 0.00 0.02 0.02 77 1018.3
20260505201516 42 68 0.9 1.7 0.00 0.02 0.02 76 1018.3
20260505201016 42 68 2.6 3.5 0.00 0.02 0.02 75 1018.3
20260505200516 42 90 3.5 4.3 0.00 0.02 0.02 75 1018.3
20260505200016 42 90 4.3 7.0 0.00 0.02 0.02 74 1018.3
20260505195516 42 113 4.3 6.1 0.00 0.02 0.02 74 1018.2
20260505195015 42 90 5.2 7.0 0.00 0.02 0.02 73 1018.2
20260505194516 42 90 5.2 7.0 0.00 0.02 0.02 74 1018.2
20260505194015 42 90 4.3 7.0 0.00 0.02 0.02 74 1018.2
20260505193516 42 90 4.3 6.1 0.00 0.02 0.02 74 1018.2
20260505193036 42 113 5.2 7.0 0.00 0.02 0.02 74 1018.2
20260505192536 43 113 4.3 7.0 0.00 0.02 0.02 74 1018.2
20260505192036 43 113 4.3 7.8 0.00 0.02 0.02 73 1018.2
20260505191515 43 113 5.2 7.0 0.00 0.02 0.02 73 1018.2
20260505191016 43 135 4.3 7.0 0.00 0.02 0.02 72 1018.1
20260505190516 43 113 4.3 6.1 0.00 0.02 0.02 73 1018.1
20260505190015 43 90 6.1 7.8 0.00 0.02 0.02 72 1018.0
20260505185535 43 113 5.2 7.8 0.00 0.02 0.02 72 1018.0
20260505185015 43 113 5.2 7.8 0.00 0.02 0.02 73 1018.0
20260505184515 43 113 6.1 8.7 0.00 0.02 0.02 72 1018.0
20260505184015 43 113 5.2 7.0 0.00 0.02 0.02 72 1018.0
20260505183516 43 113 5.2 7.8 0.00 0.02 0.02 73 1018.0
20260505183016 43 113 6.1 7.8 0.00 0.02 0.02 74 1018.0
20260505182515 43 113 4.3 7.8 0.00 0.02 0.02 74 1017.9
20260505182016 43 113 5.2 7.8 0.00 0.02 0.02 72 1018.0
20260505181516 43 113 6.1 11.3 0.00 0.02 0.02 72 1017.9
20260505181016 43 113 5.2 8.7 0.00 0.02 0.02 74 1017.8
20260505180516 43 113 6.1 9.6 0.00 0.02 0.02 73 1018.0
20260505180055 43 113 7.0 9.6 0.00 0.02 0.02 74 1018.0
20260505175536 43 113 5.2 8.7 0.00 0.02 0.02 74 1018.0
20260505175016 43 113 5.2 8.7 0.00 0.02 0.02 75 1017.9
20260505174516 43 113 7.0 10.4 0.00 0.02 0.02 74 1017.9
20260505174015 43 113 7.8 12.2 0.00 0.02 0.02 73 1017.9
20260505173515 43 113 7.0 9.6 0.00 0.02 0.02 74 1017.9
20260505173016 44 113 7.0 10.4 0.00 0.02 0.02 73 1017.8
20260505172515 44 113 8.7 12.2 0.00 0.02 0.02 73 1017.8
20260505172015 44 113 7.8 11.3 0.00 0.02 0.02 73 1017.8
20260505171535 44 113 7.8 11.3 0.00 0.02 0.02 73 1017.7
20260505171015 44 113 8.7 12.2 0.00 0.02 0.02 73 1017.7
20260505170535 44 135 8.7 11.3 0.00 0.02 0.02 73 1017.6
20260505170015 44 113 9.6 14.8 0.00 0.02 0.02 73 1017.6
20260505165515 45 135 8.7 13.0 0.00 0.02 0.02 74 1017.5
20260505165015 45 113 6.1 9.6 0.00 0.02 0.02 74 1017.4
20260505164515 45 135 6.1 9.6 0.00 0.02 0.02 74 1017.4
20260505164056 45 135 7.0 10.4 0.00 0.02 0.02 73 1017.4
20260505163515 45 158 5.2 7.8 0.00 0.02 0.02 74 1017.4
20260505163035 45 135 4.3 7.0 0.00 0.02 0.02 75 1017.3
20260505162515 45 113 6.1 8.7 0.00 0.02 0.02 74 1017.3
20260505162015 45 135 5.2 7.8 0.00 0.02 0.02 77 1017.3
20260505161536 45 135 5.2 8.7 0.00 0.02 0.02 75 1017.2
20260505161015 45 113 5.2 9.6 0.00 0.02 0.02 76 1017.2
20260505160515 45 135 5.2 8.7 0.00 0.02 0.02 76 1017.3
20260505153015 46 158 3.5 6.1 0.00 0.02 0.02 75 1017.1
20260505152515 47 135 4.3 7.8 0.00 0.02 0.02 76 1017.0
20260505152015 47 180 3.5 7.0 0.00 0.02 0.02 76 1017.0
20260505151515 46 180 3.5 6.1 0.00 0.02 0.02 76 1017.0
20260505151015 47 135 3.5 7.0 0.00 0.02 0.02 76 1017.0
20260505150515 46 203 3.5 5.2 0.00 0.02 0.02 78 1016.9